{"data":{"norad_id":65521,"epoch":"2026-05-25T02:57:46.863648Z","epoch_age_seconds":60732,"freshness":"FRESH","line1":"1 65521U 25200B   26145.12345907  .00002744  00000+0  19410-3 0  9991","line2":"2 65521  97.4496 214.7976 0002054 115.6972 244.4467 15.05656915 40635","mean_motion":15.05656915,"eccentricity":0.0002054,"inclination_deg":97.4496,"raan_deg":214.7976,"arg_perigee_deg":115.6972,"mean_anomaly_deg":244.4467,"bstar":0.0001941,"rev_number":4063,"period_min":95.639317672844,"perigee_km":548.06700846925,"apogee_km":550.91287761745,"semimajor_km":6927.6269430434,"source":"CELESTRAK","updated_at":"2026-05-25T13:38:20.846100Z"}}